Flag for Cameroon Weather past 2 weeks in Douala, Cameroon

Now
77 °F

Broken clouds.


Feels Like: 78 °F
Forecast: 74 / 80 °F
Wind: No wind

Location: Douala Obs.

Current Time: Sep 5, 2015 at 7:18:35 AM

Latest Report: Sep 5, 2015 at 7:00 AM


Visibility: N/A

Pressure: 29.92 "Hg

Humidity: 94%

Dew point: 75 °F

Location of DoualaLocation

Historic Weather in Douala — Graph

°F

Douala temperature yesterday

Maximum temperature yesterday: 86 °F (at 3:00 PM)
Minimum temperature yesterday: 77 °F (at 3:00 AM)
Average temperature yesterday: 80 °F

Past Weeks' High & Low Weather Summary

 TemperatureHumidityPressure
High86 °F (Sep 4, 3:00 PM)100% (Aug 21, 6:00 AM)30.04 "Hg (Aug 21, 6:00 AM)
Low75 °F (Aug 21, 6:00 AM)66% (Aug 21, 2:00 PM)29.80 "Hg (Aug 22, 5:00 PM)
Average78 °F91%29.92 "Hg
* Reported Aug 21 6:00 AM — Sep 5 6:00 AM, Douala, Weather by CustomWeather, © 2015

Note: Actual official high and low records may vary slightly from our data, if they occured in-between our weather recording intervals... More about our weather records

Advertising

Douala weather history for previous 24 hours

 ConditionsComfort  
Time TempWeatherWind HumidityBarometerVisibility
6:00 AM
Sat, Sep 5
77 °FPartly cloudy.No wind100%29.89 "Hg4 mi
5:00 AM77 °FPartly cloudy.No wind94%29.89 "HgN/A
4:00 AM77 °FPartly cloudy.No wind94%29.89 "HgN/A
3:00 AM77 °FPassing clouds.1 mph94%29.89 "HgN/A
2:00 AM77 °FPartly cloudy.2 mph100%29.89 "Hg5 mi
1:00 AM77 °FPassing clouds.2 mph100%29.92 "HgN/A
12:00 AM77 °FPartly cloudy.3 mph94%29.92 "Hg4 mi
11:00 PM
Fri, Sep 4
77 °FThunderstorms. Partly cloudy.No wind100%29.92 "Hg5 mi
10:00 PM77 °FPartly cloudy.5 mph94%29.92 "Hg4 mi
9:00 PM79 °FPartly cloudy.2 mph89%29.92 "Hg5 mi
8:00 PM79 °FThunderstorms. Passing clouds.2 mph89%29.89 "HgN/A
7:00 PM79 °FThunderstorms. Partly cloudy.2 mph89%29.89 "HgN/A
6:00 PM79 °FThunderstorms. Broken clouds.3 mph94%29.89 "HgN/A
5:00 PM81 °FThunderstorms. Broken clouds.8 mph89%29.89 "HgN/A
4:00 PM82 °FThunderstorms. Broken clouds.10 mph79%29.89 "HgN/A
3:00 PM86 °FThunderstorms. Broken clouds.8 mph75%29.89 "HgN/A
2:00 PM84 °FBroken clouds.9 mph74%29.89 "HgN/A
1:00 PM84 °FPartly sunny.8 mph74%29.92 "HgN/A
12:00 PM84 °FPartly sunny.8 mph79%29.95 "HgN/A
11:00 AM82 °FPartly sunny.5 mph79%29.95 "HgN/A
10:00 AM81 °FPartly sunny.5 mph89%29.95 "Hg5 mi
9:00 AM79 °FPartly sunny.1 mph94%29.95 "Hg5 mi
8:00 AM77 °FPartly sunny.1 mph100%29.92 "Hg4 mi
7:00 AM77 °FFog.No wind94%29.92 "Hg2 mi
Weather by CustomWeather, © 2015

See weather overviewHow to use our weather pages